Погода в Гилгите

Пакистан     35°55′00″N   74°18′00″E
темп.,
°C
ветер,
м/с
пор.,
м/с
влажн.,
%
обл.,
%
осадки,
мм/ч
давл.,
гПа
погр.,
м
12 апреля, пн
пн1223:00+2вюв129099 2.4 1024296
02:00+2ссв119196 1.7 1025225
05:00+1ссз118999 2.2 1025241
08:00+1ссз2288100 1.8 1027300
11:00+3вюв017528 2.3 1025572
14:00+7юв115218 0.1 10211069
17:00+8вюв11424 0.4 10191328
20:00+7юз12485 0.0 102251
13 апреля, вт
вт1323:00+5ссз235123 0.0 102498
02:00+3сз235526 0.0 102471
05:00+2сз235595 0.0 102548
08:00+4сз2245100 0.0 1026483
11:00+7юз0139100 0.0 10231175
14:00+7с2242100 0.1 1021848
17:00+8ссз3243100 0.1 1019859
20:00+6сз4456100 0.2 1022346
14 апреля, ср
ср1423:00+4ссз2272100 0.9 1025354
02:00+3зсз227499 0.2 1023214
05:00+3юз017699 0.2 102331
08:00+4с116679 0.0 1023596
11:00+7св1152100 0.0 10211125
14:00+8юв1147100 0.1 10171068
17:00+5св1174100 1.9 1020459
20:00+5зюз116737 0.2 1021408
15 апреля, чт
чт1523:00+4юз1171100 0.3 102218
02:00+4сз2272100 0.0 102241
05:00+3зсз2268100 0.1 102281
08:00+5зсз2258100 0.0 1022522
11:00+8юз1146100 0.0 10201280
14:00+10ююв3340100 0.1 10161634
17:00+9ююз2345100 0.3 10151120
20:00+7ю2253100 0.2 1017635
16 апреля, пт
пт1623:00+7юз1156100 0.3 1017386
02:00+6ю1262100 0.1 1015372
05:00+5зсз0269100 0.8 1016576
08:00+5ссз1173100 0.6 1018479
11:00+8ссв0256100 0.7 1015950
14:00+10ю2250100 0.3 10121364
17:00+6сз1179100 2.5 1015424
20:00+5с1182100 2.0 1016403